ニート彗星

180P/NEAT (2023)

English version
Home page
Updated on April 28, 2023

---------------------------------------------------------------------

・ プロフィール

・ 写真集

・ 軌道要素

Epoch 2023 Feb. 25.0 TT = JDT 2460000.5
T 2023 July 12.22496 TT                                 Rudenko
q   2.5008007            (2000.0)            P               Q
n   0.12960700     Peri.   94.67366     -0.95726275     -0.01671551
a   3.8670853      Node    84.56836     -0.10657062     -0.90769715
e   0.3533112      Incl.   16.86026     +0.26886934     -0.41929282
P   7.60
>From 923 observations 1955 May 14-2023 Feb. 26, mean residual 0".8.
     Nongravitational parameters A1 = +0.42, A2 = +0.0318.

・ 光度変化

        m1 = -0.8 + 5 logΔ + 40 log r

---------------------------------------------------------------------

軌道要素はM.P.E.C. 2023-D72に掲載されたものです。
光度グラフはComet for Windowsで作成したものです。

---------------------------------------------------------------------

Copyright(C) Seiichi Yoshida (comet@aerith.net). All rights reserved.